Location: *
(51.2167°N, 10.0667°E)
Time: 00:20:44
(UTC+00:00)

Cosmos 407 Rocket - Pass Details

Date: 12 December 2019
Orbit: 743 x 787 km, 74.0° (Epoch: 19 January)

Event Time Altitude Azimuth Distance (km) Brightness Sun altitude
Rises 16:32:19 0° 168° (SSE) 3,198 6.9 -11.7°
Reaches altitude 10° 16:34:56 10° 157° (SSE) 2,285 6.0 -12.1°
Maximum altitude 16:39:17 28° 100° (E) 1,419 4.4 -12.7°
Enters shadow 16:42:00 18° 57° (ENE) 1,822 4.8 -13.1°
